Year,Month,Day,Hour,Minute,Value (Times are PST for temperature in C)
2015,03,18,00,00,7.70
2015,03,18,00,01,7.60
2015,03,18,00,02,7.60
2015,03,18,00,03,7.60
2015,03,18,00,04,7.50
2015,03,18,00,05,7.50
2015,03,18,00,06,7.50
2015,03,18,00,07,7.40
2015,03,18,00,08,7.40
2015,03,18,00,09,7.40
2015,03,18,00,10,7.30
2015,03,18,00,11,7.30
2015,03,18,00,12,7.30
2015,03,18,00,13,7.30
2015,03,18,00,14,7.20
2015,03,18,00,15,7.20
2015,03,18,00,16,7.20
2015,03,18,00,17,7.20
2015,03,18,00,18,7.10
2015,03,18,00,19,7.10
2015,03,18,00,20,7.10
2015,03,18,00,21,7.10
2015,03,18,00,22,7.00
2015,03,18,00,23,7.00
2015,03,18,00,24,7.00
2015,03,18,00,25,7.00
2015,03,18,00,26,6.90
2015,03,18,00,27,6.90
2015,03,18,00,28,6.90
2015,03,18,00,29,6.80
2015,03,18,00,30,6.80
2015,03,18,00,31,6.80
2015,03,18,00,32,6.80
2015,03,18,00,33,6.70
2015,03,18,00,34,6.70
2015,03,18,00,35,6.70
2015,03,18,00,36,6.70
2015,03,18,00,37,6.70
2015,03,18,00,38,6.70
2015,03,18,00,39,6.60
2015,03,18,00,40,6.60
2015,03,18,00,41,6.60
2015,03,18,00,42,6.60
2015,03,18,00,43,6.50
2015,03,18,00,44,6.50
2015,03,18,00,45,6.50
2015,03,18,00,46,6.50
2015,03,18,00,47,6.40
2015,03,18,00,48,6.40
2015,03,18,00,49,6.40
2015,03,18,00,50,6.40
2015,03,18,00,51,6.40
2015,03,18,00,52,6.40
2015,03,18,00,53,6.40
2015,03,18,00,54,6.40
2015,03,18,00,55,6.30
2015,03,18,00,56,6.30
2015,03,18,00,57,6.30
2015,03,18,00,58,6.30
2015,03,18,00,59,6.30
2015,03,18,01,00,6.30
2015,03,18,01,01,6.30
2015,03,18,01,02,6.30
2015,03,18,01,03,6.20
2015,03,18,01,04,6.20
2015,03,18,01,05,6.20
2015,03,18,01,06,6.20
2015,03,18,01,07,6.10
2015,03,18,01,08,6.10
2015,03,18,01,09,6.10
2015,03,18,01,10,6.10
2015,03,18,01,11,6.10
2015,03,18,01,12,6.10
2015,03,18,01,13,6.20
2015,03,18,01,14,6.20
2015,03,18,01,15,6.20
2015,03,18,01,16,6.20
2015,03,18,01,17,6.20
2015,03,18,01,18,6.20
2015,03,18,01,19,6.10
2015,03,18,01,20,6.10
2015,03,18,01,21,6.10
2015,03,18,01,22,6.10
2015,03,18,01,23,6.10
2015,03,18,01,24,6.00
2015,03,18,01,25,6.00
2015,03,18,01,26,5.90
2015,03,18,01,27,5.90
2015,03,18,01,28,5.90
2015,03,18,01,29,5.80
2015,03,18,01,30,5.80
2015,03,18,01,31,5.80
2015,03,18,01,32,5.80
2015,03,18,01,33,5.80
2015,03,18,01,34,5.70
2015,03,18,01,35,5.70
2015,03,18,01,36,5.70
2015,03,18,01,37,5.70
2015,03,18,01,38,5.70
2015,03,18,01,39,5.70
2015,03,18,01,40,5.70
2015,03,18,01,41,5.70
2015,03,18,01,42,5.70
2015,03,18,01,43,5.70
2015,03,18,01,44,5.70
2015,03,18,01,45,5.70
2015,03,18,01,46,5.60
2015,03,18,01,47,5.60
2015,03,18,01,48,5.60
2015,03,18,01,49,5.60
2015,03,18,01,50,5.60
2015,03,18,01,51,5.50
2015,03,18,01,52,5.50
2015,03,18,01,53,5.50
2015,03,18,01,54,5.50
2015,03,18,01,55,5.50
2015,03,18,01,56,5.50
2015,03,18,01,57,5.50
2015,03,18,01,58,5.50
2015,03,18,01,59,5.50
2015,03,18,02,00,5.40
2015,03,18,02,01,5.40
2015,03,18,02,02,5.40
2015,03,18,02,03,5.40
2015,03,18,02,04,5.40
2015,03,18,02,05,5.40
2015,03,18,02,06,5.40
2015,03,18,02,07,5.40
2015,03,18,02,08,5.40
2015,03,18,02,09,5.40
2015,03,18,02,10,5.40
2015,03,18,02,11,5.30
2015,03,18,02,12,5.30
2015,03,18,02,13,5.30
2015,03,18,02,14,5.30
2015,03,18,02,15,5.30
2015,03,18,02,16,5.30
2015,03,18,02,17,5.30
2015,03,18,02,18,5.30
2015,03,18,02,19,5.30
2015,03,18,02,20,5.30
2015,03,18,02,21,5.30
2015,03,18,02,22,5.20
2015,03,18,02,23,5.20
2015,03,18,02,24,5.20
2015,03,18,02,25,5.20
2015,03,18,02,26,5.20
2015,03,18,02,27,5.20
2015,03,18,02,28,5.20
2015,03,18,02,29,5.20
2015,03,18,02,30,5.20
2015,03,18,02,31,5.20
2015,03,18,02,32,5.20
2015,03,18,02,33,5.20
2015,03,18,02,34,5.20
2015,03,18,02,35,5.20
2015,03,18,02,36,5.20
2015,03,18,02,37,5.10
2015,03,18,02,38,5.10
2015,03,18,02,39,5.10
2015,03,18,02,40,5.10
2015,03,18,02,41,5.00
2015,03,18,02,42,5.00
2015,03,18,02,43,5.10
2015,03,18,02,44,5.10
2015,03,18,02,45,5.10
2015,03,18,02,46,5.10
2015,03,18,02,47,5.00
2015,03,18,02,48,5.00
2015,03,18,02,49,5.00
2015,03,18,02,50,5.00
2015,03,18,02,51,5.00
2015,03,18,02,52,5.00
2015,03,18,02,53,5.00
2015,03,18,02,54,5.00
2015,03,18,02,55,4.90
2015,03,18,02,56,4.90
2015,03,18,02,57,4.90
2015,03,18,02,58,4.90
2015,03,18,02,59,4.80
2015,03,18,03,00,4.80
2015,03,18,03,01,4.80
2015,03,18,03,02,4.80
2015,03,18,03,06,4.70
2015,03,18,03,07,4.60
2015,03,18,03,08,4.60
2015,03,18,03,09,4.60
2015,03,18,03,10,4.60
2015,03,18,03,11,4.60
2015,03,18,03,12,4.60
2015,03,18,03,13,4.60
2015,03,18,03,14,4.70
2015,03,18,03,15,4.70
2015,03,18,03,16,4.70
2015,03,18,03,17,4.70
2015,03,18,03,18,4.70
2015,03,18,03,19,4.70
2015,03,18,03,20,4.70
2015,03,18,03,21,4.60
2015,03,18,03,22,4.60
2015,03,18,03,23,4.60
2015,03,18,03,24,4.60
2015,03,18,03,25,4.60
2015,03,18,03,26,4.60
2015,03,18,03,27,4.60
2015,03,18,03,28,4.60
2015,03,18,03,29,4.60
2015,03,18,03,30,4.50
2015,03,18,03,31,4.50
2015,03,18,03,32,4.50
2015,03,18,03,33,4.50
2015,03,18,03,34,4.50
2015,03,18,03,35,4.40
2015,03,18,03,36,4.40
2015,03,18,03,37,4.40
2015,03,18,03,38,4.40
2015,03,18,03,39,4.40
2015,03,18,03,40,4.40
2015,03,18,03,41,4.40
2015,03,18,03,42,4.40
2015,03,18,03,43,4.40
2015,03,18,03,44,4.40
2015,03,18,03,45,4.40
2015,03,18,03,46,4.50
2015,03,18,03,47,4.50
2015,03,18,03,48,4.50
2015,03,18,03,49,4.50
2015,03,18,03,50,4.50
2015,03,18,03,51,4.50
2015,03,18,03,52,4.50
2015,03,18,03,53,4.50
2015,03,18,03,54,4.50
2015,03,18,03,55,4.50
2015,03,18,03,56,4.50
2015,03,18,03,57,4.60
2015,03,18,03,58,4.50
2015,03,18,03,59,4.50
2015,03,18,04,00,4.50
2015,03,18,04,01,4.50
2015,03,18,04,02,4.40
2015,03,18,04,03,4.40
2015,03,18,04,04,4.40
2015,03,18,04,05,4.40
2015,03,18,04,06,4.30
2015,03,18,04,07,4.30
2015,03,18,04,08,4.30
2015,03,18,04,09,4.30
2015,03,18,04,10,4.20
2015,03,18,04,11,4.20
2015,03,18,04,12,4.20
2015,03,18,04,13,4.20
2015,03,18,04,14,4.20
2015,03,18,04,15,4.10
2015,03,18,04,16,4.10
2015,03,18,04,17,4.00
2015,03,18,04,18,4.00
2015,03,18,04,19,4.00
2015,03,18,04,20,3.90
2015,03,18,04,21,3.90
2015,03,18,04,22,3.90
2015,03,18,04,23,3.90
2015,03,18,04,24,3.90
2015,03,18,04,25,3.90
2015,03,18,04,26,3.80
2015,03,18,04,27,3.80
2015,03,18,04,28,3.80
2015,03,18,04,29,3.80
2015,03,18,04,30,3.80
2015,03,18,04,31,3.80
2015,03,18,04,32,3.80
2015,03,18,04,33,3.70
2015,03,18,04,34,3.70
2015,03,18,04,35,3.70
2015,03,18,04,36,3.70
2015,03,18,04,37,3.70
2015,03,18,04,38,3.70
2015,03,18,04,39,3.70
2015,03,18,04,40,3.60
2015,03,18,04,41,3.60
2015,03,18,04,42,3.60
2015,03,18,04,43,3.60
2015,03,18,04,44,3.50
2015,03,18,04,45,3.50
2015,03,18,04,46,3.50
2015,03,18,04,47,3.40
2015,03,18,04,48,3.40
2015,03,18,04,49,3.40
2015,03,18,04,50,3.40
2015,03,18,04,51,3.30
2015,03,18,04,52,3.30
2015,03,18,04,53,3.30
2015,03,18,04,54,3.30
2015,03,18,04,55,3.30
2015,03,18,04,56,3.30
2015,03,18,04,57,3.30
2015,03,18,04,58,3.30
2015,03,18,04,59,3.30
2015,03,18,05,00,3.30
2015,03,18,05,01,3.30
2015,03,18,05,02,3.30
2015,03,18,05,03,3.30
2015,03,18,05,04,3.30
2015,03,18,05,05,3.30
2015,03,18,05,06,3.20
2015,03,18,05,07,3.20
2015,03,18,05,08,3.20
2015,03,18,05,09,3.20
2015,03,18,05,10,3.20
2015,03,18,05,11,3.20
2015,03,18,05,12,3.20
2015,03,18,05,13,3.20
2015,03,18,05,14,3.30
2015,03,18,05,15,3.30
2015,03,18,05,16,3.30
2015,03,18,05,17,3.30
2015,03,18,05,18,3.20
2015,03,18,05,19,3.20
2015,03,18,05,20,3.20
2015,03,18,05,21,3.10
2015,03,18,05,22,3.10
2015,03,18,05,23,3.10
2015,03,18,05,24,3.10
2015,03,18,05,25,3.10
2015,03,18,05,26,3.00
2015,03,18,05,27,3.00
2015,03,18,05,28,3.00
2015,03,18,05,29,3.00
2015,03,18,05,30,3.00
2015,03,18,05,31,3.00
2015,03,18,05,32,3.00
2015,03,18,05,33,2.90
2015,03,18,05,34,2.90
2015,03,18,05,35,2.90
2015,03,18,05,36,2.90
2015,03,18,05,37,2.90
2015,03,18,05,38,2.90
2015,03,18,05,39,2.90
2015,03,18,05,40,2.90
2015,03,18,05,41,2.90
2015,03,18,05,42,2.90
2015,03,18,05,43,2.90
2015,03,18,05,44,2.90
2015,03,18,05,45,2.80
2015,03,18,05,46,2.80
2015,03,18,05,47,2.80
2015,03,18,05,48,2.80
2015,03,18,05,49,2.80
2015,03,18,05,50,2.90
2015,03,18,05,51,2.90
2015,03,18,05,52,2.90
2015,03,18,05,53,2.90
2015,03,18,05,54,2.90
2015,03,18,05,55,2.80
2015,03,18,05,56,2.80
2015,03,18,05,57,2.80
2015,03,18,05,58,2.80
2015,03,18,05,59,2.80
2015,03,18,06,00,2.70
2015,03,18,06,01,2.70
2015,03,18,06,02,2.70
2015,03,18,06,03,2.70
2015,03,18,06,04,2.70
2015,03,18,06,05,2.70
2015,03,18,06,06,2.70
2015,03,18,06,07,2.70
2015,03,18,06,08,2.70
2015,03,18,06,09,2.70
2015,03,18,06,10,2.70
2015,03,18,06,11,2.70
2015,03,18,06,12,2.70
2015,03,18,06,13,2.70
2015,03,18,06,14,2.70
2015,03,18,06,15,2.70
2015,03,18,06,16,2.70
2015,03,18,06,17,2.70
2015,03,18,06,18,2.70
2015,03,18,06,19,2.70
2015,03,18,06,20,2.70
2015,03,18,06,21,2.70
2015,03,18,06,22,2.70
2015,03,18,06,23,2.60
2015,03,18,06,24,2.60
2015,03,18,06,25,2.60
2015,03,18,06,26,2.60
2015,03,18,06,27,2.50
2015,03,18,06,28,2.50
2015,03,18,06,29,2.40
2015,03,18,06,30,2.40
2015,03,18,06,31,2.40
2015,03,18,06,32,2.40
2015,03,18,06,33,2.40
2015,03,18,06,34,2.40
2015,03,18,06,35,2.40
2015,03,18,06,36,2.40
2015,03,18,06,37,2.40
2015,03,18,06,38,2.40
2015,03,18,06,39,2.40
2015,03,18,06,40,2.40
2015,03,18,06,41,2.40
2015,03,18,06,42,2.40
2015,03,18,06,43,2.30
2015,03,18,06,44,2.30
2015,03,18,06,45,2.30
2015,03,18,06,46,2.30
2015,03,18,06,47,2.30
2015,03,18,06,48,2.30
2015,03,18,06,49,2.30
2015,03,18,06,50,2.30
2015,03,18,06,51,2.30
2015,03,18,06,52,2.30
2015,03,18,06,53,2.40
2015,03,18,06,54,2.40
2015,03,18,06,55,2.40
2015,03,18,06,56,2.40
2015,03,18,06,57,2.40
2015,03,18,06,58,2.40
2015,03,18,06,59,2.40
2015,03,18,07,00,2.40
2015,03,18,07,01,2.40
2015,03,18,07,02,2.40
2015,03,18,07,03,2.50
2015,03,18,07,04,2.50
2015,03,18,07,05,2.50
2015,03,18,07,06,2.50
2015,03,18,07,07,2.40
2015,03,18,07,08,2.40
2015,03,18,07,09,2.40
2015,03,18,07,10,2.40
2015,03,18,07,11,2.40
2015,03,18,07,12,2.40
2015,03,18,07,13,2.40
2015,03,18,07,14,2.40
2015,03,18,07,15,2.40
2015,03,18,07,16,2.40
2015,03,18,07,17,2.40
2015,03,18,07,18,2.30
2015,03,18,07,19,2.30
2015,03,18,07,20,2.30
2015,03,18,07,21,2.30
2015,03,18,07,22,2.30
2015,03,18,07,23,2.30
2015,03,18,07,24,2.30
2015,03,18,07,25,2.30
2015,03,18,07,26,2.30
2015,03,18,07,27,2.30
2015,03,18,07,28,2.40
2015,03,18,07,29,2.40
2015,03,18,07,30,2.40
2015,03,18,07,31,2.40
2015,03,18,07,32,2.50
2015,03,18,07,33,2.50
2015,03,18,07,34,2.50
2015,03,18,07,35,2.50
2015,03,18,07,36,2.50
2015,03,18,07,37,2.60
2015,03,18,07,38,2.60
2015,03,18,07,39,2.60
2015,03,18,07,40,2.60
2015,03,18,07,41,2.60
2015,03,18,07,42,2.60
2015,03,18,07,43,2.60
2015,03,18,07,44,2.70
2015,03,18,07,45,2.70
2015,03,18,07,46,2.70
2015,03,18,07,47,2.70
2015,03,18,07,48,2.70
2015,03,18,07,49,2.70
2015,03,18,07,50,2.70
2015,03,18,07,51,2.80
2015,03,18,07,52,2.80
2015,03,18,07,53,2.80
2015,03,18,07,54,2.80
2015,03,18,07,55,2.80
2015,03,18,07,56,2.80
2015,03,18,07,57,2.80
2015,03,18,07,58,2.90
2015,03,18,07,59,2.90
2015,03,18,08,00,2.90
2015,03,18,08,01,2.90
2015,03,18,08,02,2.90
2015,03,18,08,03,2.90
2015,03,18,08,04,3.00
2015,03,18,08,05,3.00
2015,03,18,08,06,3.00
2015,03,18,08,07,3.00
2015,03,18,08,08,3.10
2015,03,18,08,09,3.10
2015,03,18,08,10,3.10
2015,03,18,08,11,3.10
2015,03,18,08,12,3.10
2015,03,18,08,13,3.10
2015,03,18,08,14,3.10
2015,03,18,08,15,3.20
2015,03,18,08,16,3.20
2015,03,18,08,17,3.20
2015,03,18,08,18,3.20
2015,03,18,08,19,3.20
2015,03,18,08,20,3.20
2015,03,18,08,21,3.20
2015,03,18,08,22,3.20
2015,03,18,08,23,3.20
2015,03,18,08,24,3.20
2015,03,18,08,25,3.20
2015,03,18,08,26,3.20
2015,03,18,08,27,3.20
2015,03,18,08,28,3.20
2015,03,18,08,29,3.20
2015,03,18,08,30,3.20
2015,03,18,08,31,3.20
2015,03,18,08,32,3.20
2015,03,18,08,33,3.20
2015,03,18,08,34,3.20
2015,03,18,08,35,3.30
2015,03,18,08,36,3.30
2015,03,18,08,37,3.30
2015,03,18,08,38,3.30
2015,03,18,08,39,3.30
2015,03,18,08,40,3.30
2015,03,18,08,41,3.30
2015,03,18,08,42,3.30
2015,03,18,08,43,3.40
2015,03,18,08,44,3.40
2015,03,18,08,45,3.40
2015,03,18,08,46,3.40
2015,03,18,08,47,3.50
2015,03,18,08,48,3.50
2015,03,18,08,49,3.50
2015,03,18,08,50,3.60
2015,03,18,08,51,3.60
2015,03,18,08,52,3.60
2015,03,18,08,53,3.60
2015,03,18,08,54,3.60
2015,03,18,08,55,3.70
2015,03,18,08,56,3.70
2015,03,18,08,57,3.70
2015,03,18,08,58,3.70
2015,03,18,08,59,3.70
2015,03,18,09,00,3.70
2015,03,18,09,01,3.70
2015,03,18,09,02,3.70
2015,03,18,09,03,3.70
2015,03,18,09,04,3.70
2015,03,18,09,05,3.70
2015,03,18,09,06,3.80
2015,03,18,09,07,3.80
2015,03,18,09,08,3.80
2015,03,18,09,09,3.80
2015,03,18,09,10,3.80
2015,03,18,09,11,3.80
2015,03,18,09,12,3.80
2015,03,18,09,13,3.80
2015,03,18,09,14,3.90
2015,03,18,09,15,3.90
2015,03,18,09,16,3.90
2015,03,18,09,17,3.90
2015,03,18,09,18,3.90
2015,03,18,09,19,4.00
2015,03,18,09,20,4.00
2015,03,18,09,21,4.00
2015,03,18,09,22,4.00
2015,03,18,09,23,4.00
2015,03,18,09,24,4.00
2015,03,18,09,25,4.00
2015,03,18,09,26,4.00
2015,03,18,09,27,4.00
2015,03,18,09,28,4.10
2015,03,18,09,29,4.10
2015,03,18,09,30,4.10
2015,03,18,09,31,4.10
2015,03,18,09,32,4.10
2015,03,18,09,33,4.10
2015,03,18,09,34,4.10
2015,03,18,09,35,4.10
2015,03,18,09,36,4.10
2015,03,18,09,37,4.10
2015,03,18,09,38,4.10
2015,03,18,09,39,4.10
2015,03,18,09,40,4.10
2015,03,18,09,41,4.10
2015,03,18,09,42,4.10
2015,03,18,09,43,4.10
2015,03,18,09,44,4.10
2015,03,18,09,45,4.20
2015,03,18,09,46,4.20
2015,03,18,09,47,4.20
2015,03,18,09,48,4.20
2015,03,18,09,49,4.20
2015,03,18,09,50,4.20
2015,03,18,09,51,4.20
2015,03,18,09,52,4.20
2015,03,18,09,53,4.20
2015,03,18,09,54,4.20
2015,03,18,09,55,4.20
2015,03,18,09,56,4.20
2015,03,18,09,57,4.20
2015,03,18,09,58,4.20
2015,03,18,09,59,4.20
2015,03,18,10,00,4.20
2015,03,18,10,01,4.20
2015,03,18,10,02,4.20
2015,03,18,10,03,4.20
2015,03,18,10,04,4.20
2015,03,18,10,05,4.20
2015,03,18,10,06,4.20
2015,03,18,10,07,4.20
2015,03,18,10,08,4.20
2015,03,18,10,09,4.20
2015,03,18,10,10,4.20
2015,03,18,10,11,4.20
2015,03,18,10,12,4.20
2015,03,18,10,13,4.20
2015,03,18,10,14,4.20
2015,03,18,10,15,4.20
2015,03,18,10,16,4.20
2015,03,18,10,17,4.30
2015,03,18,10,18,4.30
2015,03,18,10,19,4.30
2015,03,18,10,20,4.30
2015,03,18,10,21,4.30
2015,03,18,10,22,4.40
2015,03,18,10,23,4.40
2015,03,18,10,24,4.40
2015,03,18,10,25,4.30
2015,03,18,10,26,4.30
2015,03,18,10,27,4.40
2015,03,18,10,28,4.40
2015,03,18,10,29,4.40
2015,03,18,10,30,4.40
2015,03,18,10,31,4.40
2015,03,18,10,32,4.40
2015,03,18,10,33,4.40
2015,03,18,10,34,4.40
2015,03,18,10,35,4.40
2015,03,18,10,36,4.40
2015,03,18,10,37,4.40
2015,03,18,10,38,4.40
2015,03,18,10,39,4.40
2015,03,18,10,40,4.40
2015,03,18,10,41,4.40
2015,03,18,10,42,4.50
2015,03,18,10,43,4.50
2015,03,18,10,44,4.50
2015,03,18,10,45,4.50
2015,03,18,10,46,4.50
2015,03,18,10,47,4.50
2015,03,18,10,48,4.50
2015,03,18,10,49,4.50
2015,03,18,10,50,4.60
2015,03,18,10,51,4.60
2015,03,18,10,52,4.60
2015,03,18,10,53,4.60
2015,03,18,10,54,4.70
2015,03,18,10,55,4.70
2015,03,18,10,56,4.70
2015,03,18,10,57,4.70
2015,03,18,10,58,4.70
2015,03,18,10,59,4.70
2015,03,18,11,00,4.70
2015,03,18,11,01,4.70
2015,03,18,11,02,4.80
2015,03,18,11,03,4.80
2015,03,18,11,04,4.80
2015,03,18,11,05,4.80
2015,03,18,11,06,4.90
2015,03,18,11,07,4.90
2015,03,18,11,08,4.90
2015,03,18,11,09,4.90
2015,03,18,11,10,4.90
2015,03,18,11,11,4.90
2015,03,18,11,12,4.90
2015,03,18,11,13,4.80
2015,03,18,11,14,4.80
2015,03,18,11,15,4.80
2015,03,18,11,16,4.80
2015,03,18,11,17,4.80
2015,03,18,11,18,4.80
2015,03,18,11,19,4.80
2015,03,18,11,20,4.80
2015,03,18,11,21,4.90
2015,03,18,11,22,4.90
2015,03,18,11,23,4.90
2015,03,18,11,24,4.90
2015,03,18,11,25,4.90
2015,03,18,11,26,4.90
2015,03,18,11,27,4.90
2015,03,18,11,28,5.00
2015,03,18,11,29,5.00
2015,03,18,11,30,5.00
2015,03,18,11,31,5.00
2015,03,18,11,32,5.00
2015,03,18,11,33,5.00
2015,03,18,11,34,5.00
2015,03,18,11,35,5.00
2015,03,18,11,36,5.00
2015,03,18,11,37,5.10
2015,03,18,11,38,5.10
2015,03,18,11,39,5.10
2015,03,18,11,40,5.10
2015,03,18,11,41,5.10
2015,03,18,11,42,5.10
2015,03,18,11,43,5.10
2015,03,18,11,44,5.10
2015,03,18,11,45,5.10
2015,03,18,11,46,5.20
2015,03,18,11,47,5.20
2015,03,18,11,48,5.20
2015,03,18,11,49,5.20
2015,03,18,11,50,5.20
2015,03,18,11,51,5.20
2015,03,18,11,52,5.20
2015,03,18,11,53,5.20
2015,03,18,11,54,5.20
2015,03,18,11,55,5.20
2015,03,18,11,56,5.20
2015,03,18,11,57,5.20
2015,03,18,11,58,5.20
2015,03,18,11,59,5.20
2015,03,18,12,00,5.20
2015,03,18,12,01,5.20
2015,03,18,12,02,5.20
2015,03,18,12,03,5.20
2015,03,18,12,04,5.20
2015,03,18,12,05,5.20
2015,03,18,12,06,5.20
2015,03,18,12,07,5.20
2015,03,18,12,08,5.20
2015,03,18,12,09,5.30
2015,03,18,12,10,5.30
2015,03,18,12,11,5.30
2015,03,18,12,12,5.30
2015,03,18,12,13,5.30
2015,03,18,12,14,5.30
2015,03,18,12,15,5.30
2015,03,18,12,16,5.30
2015,03,18,12,17,5.30
2015,03,18,12,18,5.30
2015,03,18,12,19,5.40
2015,03,18,12,20,5.50
2015,03,18,12,21,5.50
2015,03,18,12,22,5.60
2015,03,18,12,23,5.70
2015,03,18,12,24,5.70
2015,03,18,12,25,5.70
2015,03,18,12,26,5.80
2015,03,18,12,27,5.80
2015,03,18,12,28,5.80
2015,03,18,12,29,5.80
2015,03,18,12,30,5.80
2015,03,18,12,31,5.80
2015,03,18,12,32,5.80
2015,03,18,12,33,5.80
2015,03,18,12,34,5.80
2015,03,18,12,35,5.90
2015,03,18,12,36,5.90
2015,03,18,12,37,5.90
2015,03,18,12,38,5.90
2015,03,18,12,39,6.00
2015,03,18,12,40,6.00
2015,03,18,12,41,6.00
2015,03,18,12,42,6.10
2015,03,18,12,43,6.10
2015,03,18,12,44,6.10
2015,03,18,12,45,6.20
2015,03,18,12,46,6.20
2015,03,18,12,47,6.20
2015,03,18,12,48,6.30
2015,03,18,12,49,6.30
2015,03,18,12,50,6.40
2015,03,18,12,51,6.40
2015,03,18,12,52,6.50
2015,03,18,12,53,6.60
2015,03,18,12,54,6.60
2015,03,18,12,55,6.70
2015,03,18,12,56,6.70
2015,03,18,12,57,6.70
2015,03,18,12,58,6.80
2015,03,18,12,59,6.80
2015,03,18,13,00,6.80
2015,03,18,13,01,6.80
2015,03,18,13,02,6.90
2015,03,18,13,03,6.90
2015,03,18,13,04,7.00
2015,03,18,13,05,7.00
2015,03,18,13,06,7.10
2015,03,18,13,07,7.20
2015,03,18,13,08,7.20
2015,03,18,13,09,7.20
2015,03,18,13,10,7.30
2015,03,18,13,11,7.30
2015,03,18,13,12,7.30
2015,03,18,13,13,7.30
2015,03,18,13,14,7.40
2015,03,18,13,15,7.50
2015,03,18,13,16,7.50
2015,03,18,13,17,7.60
2015,03,18,13,18,7.70
2015,03,18,13,19,7.70
2015,03,18,13,20,7.80
2015,03,18,13,21,7.80
2015,03,18,13,22,7.90
2015,03,18,13,23,8.00
2015,03,18,13,24,8.00
2015,03,18,13,25,8.10
2015,03,18,13,26,8.20
2015,03,18,13,27,8.20
2015,03,18,13,28,8.20
2015,03,18,13,29,8.20
2015,03,18,13,30,8.30
2015,03,18,13,31,8.30
2015,03,18,13,32,8.30
2015,03,18,13,33,8.40
2015,03,18,13,34,8.40
2015,03,18,13,35,8.40
2015,03,18,13,36,8.40
2015,03,18,13,37,8.50
2015,03,18,13,38,8.50
2015,03,18,13,39,8.60
2015,03,18,13,40,8.60
2015,03,18,13,41,8.60
2015,03,18,13,42,8.60
2015,03,18,13,43,8.60
2015,03,18,13,44,8.60
2015,03,18,13,45,8.60
2015,03,18,13,46,8.60
2015,03,18,13,47,8.60
2015,03,18,13,48,8.60
2015,03,18,13,49,8.70
2015,03,18,13,50,8.70
2015,03,18,13,51,8.70
2015,03,18,13,52,8.80
2015,03,18,13,53,8.80
2015,03,18,13,54,8.90
2015,03,18,13,55,9.00
2015,03,18,13,56,9.10
2015,03,18,13,57,9.20
2015,03,18,13,58,9.20
2015,03,18,13,59,9.30
2015,03,18,14,00,9.30
2015,03,18,14,01,9.30
2015,03,18,14,02,9.40
2015,03,18,14,03,9.40
2015,03,18,14,04,9.40
2015,03,18,14,05,9.40
2015,03,18,14,06,9.40
2015,03,18,14,07,9.50
2015,03,18,14,08,9.50
2015,03,18,14,09,9.60
2015,03,18,14,10,9.70
2015,03,18,14,11,9.70
2015,03,18,14,12,9.80
2015,03,18,14,13,9.90
2015,03,18,14,14,9.90
2015,03,18,14,15,9.90
2015,03,18,14,16,9.90
2015,03,18,14,17,9.90
2015,03,18,14,18,9.90
2015,03,18,14,19,9.90
2015,03,18,14,20,9.90
2015,03,18,14,21,10.00
2015,03,18,14,22,10.10
2015,03,18,14,23,10.10
2015,03,18,14,24,10.10
2015,03,18,14,25,10.10
2015,03,18,14,26,10.10
2015,03,18,14,27,10.10
2015,03,18,14,28,10.10
2015,03,18,14,29,10.10
2015,03,18,14,30,10.10
2015,03,18,14,31,10.10
2015,03,18,14,32,10.10
2015,03,18,14,33,10.10
2015,03,18,14,34,10.10
2015,03,18,14,35,10.10
2015,03,18,14,36,10.00
2015,03,18,14,37,10.00
2015,03,18,14,38,10.00
2015,03,18,14,39,10.00
2015,03,18,14,40,10.00
2015,03,18,14,41,10.00
2015,03,18,14,42,10.00
2015,03,18,14,43,10.10
2015,03,18,14,44,10.10
2015,03,18,14,45,10.20
2015,03,18,14,46,10.20
2015,03,18,14,47,10.20
2015,03,18,14,48,10.30
2015,03,18,14,49,10.30
2015,03,18,14,50,10.40
2015,03,18,14,51,10.40
2015,03,18,14,52,10.40
2015,03,18,14,53,10.40
2015,03,18,14,54,10.40
2015,03,18,14,55,10.50
2015,03,18,14,56,10.50
2015,03,18,14,57,10.50
2015,03,18,14,58,10.50
2015,03,18,14,59,10.50
2015,03,18,15,00,10.60
2015,03,18,15,01,10.50
2015,03,18,15,02,10.50
2015,03,18,15,03,10.40
2015,03,18,15,04,10.40
2015,03,18,15,05,10.40
2015,03,18,15,06,10.40
2015,03,18,15,07,10.40
2015,03,18,15,08,10.40
2015,03,18,15,09,10.40
2015,03,18,15,10,10.40
2015,03,18,15,11,10.40
2015,03,18,15,12,10.40
2015,03,18,15,13,10.40
2015,03,18,15,14,10.50
2015,03,18,15,15,10.50
2015,03,18,15,16,10.60
2015,03,18,15,17,10.60
2015,03,18,15,18,10.60
2015,03,18,15,19,10.60
2015,03,18,15,20,10.70
2015,03,18,15,21,10.70
2015,03,18,15,22,10.70
2015,03,18,15,23,10.70
2015,03,18,15,24,10.70
2015,03,18,15,25,10.70
2015,03,18,15,26,10.70
2015,03,18,15,27,10.80
2015,03,18,15,28,10.80
2015,03,18,15,29,10.80
2015,03,18,15,30,10.80
2015,03,18,15,31,10.80
2015,03,18,15,32,10.80
2015,03,18,15,33,10.80
2015,03,18,15,34,10.80
2015,03,18,15,35,10.80
2015,03,18,15,36,10.70
2015,03,18,15,37,10.60
2015,03,18,15,38,10.60
2015,03,18,15,39,10.60
2015,03,18,15,40,10.60
2015,03,18,15,41,10.60
2015,03,18,15,42,10.60
2015,03,18,15,43,10.60
2015,03,18,15,44,10.60
2015,03,18,15,45,10.60
2015,03,18,15,46,10.60
2015,03,18,15,47,10.60
2015,03,18,15,48,10.70
2015,03,18,15,49,10.70
2015,03,18,15,50,10.70
2015,03,18,15,51,10.80
2015,03,18,15,52,10.80
2015,03,18,15,53,10.80
2015,03,18,15,54,10.90
2015,03,18,15,55,10.90
2015,03,18,15,56,10.90
2015,03,18,15,57,11.00
2015,03,18,15,58,11.00
2015,03,18,15,59,11.00
2015,03,18,16,00,11.00
2015,03,18,16,01,11.10
2015,03,18,16,02,11.10
2015,03,18,16,03,11.10
2015,03,18,16,04,11.00
2015,03,18,16,05,11.00
2015,03,18,16,06,10.90
2015,03,18,16,07,10.90
2015,03,18,16,08,10.90
2015,03,18,16,09,10.90
2015,03,18,16,10,10.90
2015,03,18,16,11,10.90
2015,03,18,16,12,10.80
2015,03,18,16,13,10.80
2015,03,18,16,14,10.80
2015,03,18,16,15,10.80
2015,03,18,16,16,10.90
2015,03,18,16,17,10.90
2015,03,18,16,18,10.90
2015,03,18,16,19,11.00
2015,03,18,16,20,11.00
2015,03,18,16,21,11.10
2015,03,18,16,22,11.10
2015,03,18,16,23,11.20
2015,03,18,16,24,11.20
2015,03,18,16,25,11.20
2015,03,18,16,26,11.20
2015,03,18,16,27,11.30
2015,03,18,16,28,11.30
2015,03,18,16,29,11.40
2015,03,18,16,30,11.50
2015,03,18,16,31,11.50
2015,03,18,16,32,11.60
2015,03,18,16,33,11.60
2015,03,18,16,34,11.70
2015,03,18,16,35,11.70
2015,03,18,16,36,11.70
2015,03,18,16,37,11.70
2015,03,18,16,38,11.70
2015,03,18,16,39,11.70
2015,03,18,16,40,11.70
2015,03,18,16,41,11.70
2015,03,18,16,42,11.70
2015,03,18,16,43,11.70
2015,03,18,16,44,11.70
2015,03,18,16,45,11.80
2015,03,18,16,46,11.70
2015,03,18,16,47,11.70
2015,03,18,16,48,11.70
2015,03,18,16,49,11.80
2015,03,18,16,50,11.80
2015,03,18,16,51,11.80
2015,03,18,16,52,11.80
2015,03,18,16,53,11.80
2015,03,18,16,54,11.80
2015,03,18,16,55,11.80
2015,03,18,16,56,11.80
2015,03,18,16,57,11.80
2015,03,18,16,58,11.80
2015,03,18,16,59,11.80
2015,03,18,17,00,11.80
2015,03,18,17,01,11.80
2015,03,18,17,02,11.80
2015,03,18,17,03,11.80
2015,03,18,17,04,11.80
2015,03,18,17,05,11.80
2015,03,18,17,06,11.80
2015,03,18,17,07,11.80
2015,03,18,17,08,11.80
2015,03,18,17,09,11.80
2015,03,18,17,10,11.80
2015,03,18,17,11,11.80
2015,03,18,17,12,11.80
2015,03,18,17,13,11.80
2015,03,18,17,14,11.70
2015,03,18,17,15,11.70
2015,03,18,17,16,11.70
2015,03,18,17,17,11.70
2015,03,18,17,18,11.70
2015,03,18,17,19,11.70
2015,03,18,17,20,11.70
2015,03,18,17,21,11.70
2015,03,18,17,22,11.70
2015,03,18,17,23,11.70
2015,03,18,17,24,11.70
2015,03,18,17,25,11.70
2015,03,18,17,26,11.70
2015,03,18,17,27,11.60
2015,03,18,17,28,11.60
2015,03,18,17,29,11.60
2015,03,18,17,30,11.60
2015,03,18,17,31,11.60
2015,03,18,17,32,11.70
2015,03,18,17,33,11.70
2015,03,18,17,34,11.70
2015,03,18,17,35,11.70
2015,03,18,17,36,11.70
2015,03,18,17,37,11.70
2015,03,18,17,38,11.70
2015,03,18,17,39,11.60
2015,03,18,17,40,11.60
2015,03,18,17,41,11.60
2015,03,18,17,42,11.60
2015,03,18,17,43,11.60
2015,03,18,17,44,11.60
2015,03,18,17,45,11.60
2015,03,18,17,46,11.60
2015,03,18,17,47,11.60
2015,03,18,17,48,11.50
2015,03,18,17,49,11.50
2015,03,18,17,50,11.50
2015,03,18,17,51,11.50
2015,03,18,17,52,11.50
2015,03,18,17,53,11.50
2015,03,18,17,54,11.50
2015,03,18,17,55,11.50
2015,03,18,17,56,11.50
2015,03,18,17,57,11.50
2015,03,18,17,58,11.50
2015,03,18,17,59,11.50